Flag for Norway Weather past 2 weeks in Ulsteinvik, Norway

Now
57 °F

Broken clouds.


Feels Like: 55 °F
Forecast: 56 / 60 °F
Wind: 9 mph from North

Location: Alesund / Vigra

Current Time: Aug 23, 2014 at 10:29:42 PM

Latest Report: Aug 23, 2014 at 9:50 PM


Visibility: N/A

Pressure: 29.62 "Hg

Humidity: 88%

Dew point: 54 °F

Location of UlsteinvikLocation

Historic Weather in Ulsteinvik — Graph

°F

Ulsteinvik temperature yesterday

Maximum temperature yesterday: 61 °F (at 1:50 PM)
Minimum temperature yesterday: 48 °F (at 12:50 AM)
Average temperature yesterday: 55 °F

Past Weeks' High & Low Weather Summary

 TemperatureHumidityPressure
High73 °F (Aug 9, 3:20 PM)100% (Aug 9, 5:20 AM)29.92 "Hg (Aug 9, 5:20 AM)
Low48 °F (Aug 16, 3:50 AM)38% (Aug 12, 1:50 PM)29.21 "Hg (Aug 18, 7:20 AM)
Average59 °F78%29.52 "Hg
* Reported Aug 8 8:20 PM — Aug 23 8:50 PM, Ulsteinvik, Weather by CustomWeather, © 2014

Note: Actual official high and low records may vary slightly from our data, if they occured in-between our weather recording intervals... More about our weather records

Advertising

Ulsteinvik weather history for previous 24 hours

 ConditionsComfort  
Time TempWeatherWind HumidityBarometerVisibility
8:50 PM
Aug 23
57 °FScattered showers. Partly sunny.13 mph82%29.62 "HgN/A
8:20 PM57 °FScattered showers. Partly sunny.14 mph88%29.62 "HgN/A
7:50 PM59 °FScattered showers. Broken clouds.13 mph77%29.62 "HgN/A
7:20 PM59 °FBroken clouds.13 mph77%29.62 "HgN/A
6:50 PM59 °FBroken clouds.13 mph77%29.62 "HgN/A
6:20 PM59 °FBroken clouds.14 mph77%29.59 "HgN/A
5:50 PM59 °FBroken clouds.12 mph77%29.59 "HgN/A
5:20 PM61 °FScattered clouds.12 mph77%29.62 "HgN/A
4:50 PM61 °FScattered clouds.14 mph72%29.59 "HgN/A
4:20 PM61 °FScattered clouds.13 mph72%29.59 "HgN/A
3:50 PM61 °FScattered clouds.12 mph72%29.59 "HgN/A
3:20 PM61 °FPartly sunny.12 mph72%29.59 "HgN/A
2:50 PM61 °FScattered clouds.10 mph72%29.59 "HgN/A
2:20 PM61 °FScattered clouds.10 mph72%29.59 "HgN/A
1:50 PM61 °FScattered clouds.9 mph72%29.59 "HgN/A
1:20 PM59 °FScattered clouds.9 mph77%29.59 "HgN/A
12:50 PM61 °FScattered clouds.9 mph72%29.59 "HgN/A
12:20 PM59 °FScattered clouds.8 mph77%29.59 "HgN/A
11:50 AM59 °FScattered clouds.9 mph77%29.59 "HgN/A
11:20 AM57 °FPartly sunny.9 mph77%29.59 "HgN/A
10:50 AM57 °FPartly sunny.9 mph77%29.59 "HgN/A
10:20 AM57 °FBroken clouds.12 mph77%29.59 "HgN/A
9:50 AM57 °FBroken clouds.10 mph77%29.59 "HgN/A
9:20 AM55 °FBroken clouds.12 mph82%29.59 "HgN/A
8:50 AM55 °FBroken clouds.12 mph82%29.59 "HgN/A
8:20 AM55 °FBroken clouds.13 mph82%29.59 "HgN/A
7:50 AM55 °FBroken clouds.15 mph82%29.59 "HgN/A
7:20 AM55 °FBroken clouds.12 mph82%29.59 "HgN/A
6:50 AM55 °FPartly cloudy.12 mph82%29.59 "HgN/A
6:20 AM55 °FPassing clouds.12 mph82%29.59 "HgN/A
5:50 AM54 °FPartly cloudy.13 mph88%29.59 "HgN/A
5:20 AM55 °FMostly cloudy.14 mph82%29.59 "HgN/A
4:50 AM54 °FPartly cloudy.13 mph88%29.59 "HgN/A
4:20 AM54 °FPassing clouds.13 mph88%29.59 "HgN/A
3:50 AM54 °FMostly cloudy.13 mph88%29.62 "HgN/A
3:20 AM54 °FPassing clouds.14 mph82%29.62 "HgN/A
2:50 AM54 °FPartly cloudy.16 mph82%29.62 "HgN/A
2:20 AM54 °FCool.16 mph82%29.62 "HgN/A
1:50 AM55 °FPassing clouds.17 mph77%29.62 "HgN/A
1:20 AM55 °FPassing clouds.17 mph77%29.62 "HgN/A
12:50 AM55 °FPassing clouds.17 mph77%29.62 "HgN/A
12:20 AM55 °FPassing clouds.18 mph77%29.62 "HgN/A
11:50 PM
Aug 22
55 °FPassing clouds.20 mph77%29.62 "HgN/A
11:20 PM55 °FPassing clouds.18 mph77%29.62 "HgN/A
10:50 PM55 °FPartly cloudy.20 mph82%29.62 "HgN/A
10:20 PM55 °FPartly cloudy.17 mph77%29.62 "HgN/A
Weather by CustomWeather, © 2014

See weather overviewHow to use our weather pages